Weather in Vykatnoy

Russia / Khanty-Mansi Autonomous Okrug — Yugra     60°38′51″N   69°33′24″E
temp.,
°C
wind,
m/s
gust,
m/s
humid.,
%
clouds,
%
prec.,
mm/h
press.,
hPa
HPBL,
m
20 may, fri
fri2023:00+10sw4588100 1.8 992118
02:00+9w81089100 0.1 992725
05:00+8wsw81189100 0.1 992817
08:00+8wsw101385100 0.1 993928
11:00+6sw121488100 0.1 995792
14:00+5sw121592100 0.1 995993
17:00+4wsw121595100 0.3 9951041
20:00+3wsw111590100 0.3 9961108
21 may, sat
sat2123:00+3wsw121681100 0.4 9971098
02:00+3wsw101590100 0.1 9981107
05:00+3wsw81193100 0.3 1000870
08:00+4w8979100 0.1 10021010
11:00+5w6771100 0.1 10041111
14:00+7wnw3465100 0.0 10041063
17:00+8nnw116095 0.0 1005846
20:00+6ne6770100 0.0 1004312
22 may, sun
sun2223:00+5ene71280100 0.4 1003415
02:00+5ne9158895 1.8 1001438
05:00+6ene12208293 1.8 998494
08:00+9e131876100 0.2 996516
11:00+15e111359100 0.2 993980
14:00+21se91149100 0.0 9921794
17:00+13sw101393100 0.6 993544
20:00+11ssw6893100 6.6 994462
23 may, mon
mon2323:00+10ssw3694100 16.1 993336
02:00+8sw71186100 0.4 993560
05:00+6sw91180100 0.4 995979
08:00+6sw111371100 0.1 9981330
11:00+10ssw11145194 0.1 10002112
14:00+12sw101344100 0.0 10022460
17:00+13ssw9114494 0.0 10032198
20:00+11s4557100 0.0 100381
24 may, tue
tue2423:00+9sse3467100 0.0 100444
02:00+8sse578199 0.0 1005199
05:00+8s468576 0.0 1006149
08:00+10s337192 0.1 1007384
11:00+12sw5564100 0.3 1009830
14:00+14s455452 0.0 10101418
17:00+15sw675481 0.7 10111416
20:00+13sw466792 0.3 1013132